This is the latest recevied weather packets stored in our database for station/object IK2ILW-4. If no packets are shown the sender has not sent any weather packets the latest 10 day(s).
| Time | Temp. | Humidity | Pressure | Rain* | Wind** | Luminosity | Snow |
|---|---|---|---|---|---|---|---|
| 1787650362 | 14.44° C | 95% | 1016.1 hPa | 39.12 mm | - | 244 W/m² | - |
| 1787650062 | 14.44° C | 95% | 1016.1 hPa | 39.12 mm | - | 265 W/m² | - |
| 1787649758 | 14.44° C | 95% | 1016.1 hPa | 38.61 mm | - | 213 W/m² | - |
| 1787649463 | 14.44° C | 95% | 1016.1 hPa | 38.35 mm | - | 153 W/m² | - |
| 1787649158 | 14.44° C | 95% | 1015.9 hPa | 38.1 mm | - | 137 W/m² | - |
| 1787648866 | 13.89° C | 94% | 1015.9 hPa | 37.85 mm | - | 148 W/m² | - |
| 1787648564 | 13.89° C | 94% | 1015.9 hPa | 37.08 mm | - | 137 W/m² | - |
| 1787648259 | 13.89° C | 94% | 1015.8 hPa | 36.83 mm | - | 102 W/m² | - |
| 1787647960 | 13.89° C | 94% | 1015.8 hPa | 36.58 mm | - | 104 W/m² | - |
| 1787647668 | 13.89° C | 94% | 1015.8 hPa | 36.32 mm | - | 113 W/m² | - |
| 1787647364 | 13.89° C | 94% | 1015.8 hPa | 35.56 mm | - | 120 W/m² | - |
| 1787647061 | 13.89° C | 94% | 1015.8 hPa | 35.31 mm | - | 91 W/m² | - |
| 1787646771 | 13.89° C | 94% | 1015.8 hPa | 34.8 mm | - | 74 W/m² | - |
| 1787646467 | 13.89° C | 94% | 1015.7 hPa | 34.29 mm | - | 62 W/m² | - |
| 1787646164 | 13.89° C | 94% | 1015.7 hPa | 33.78 mm | - | 58 W/m² | - |
| 1787645873 | 13.89° C | 94% | 1015.7 hPa | 32.77 mm | - | 63 W/m² | - |
| 1787645559 | 13.89° C | 94% | 1015.5 hPa | 32 mm | - | 54 W/m² | - |
| 1787645256 | 13.89° C | 94% | 1015.5 hPa | 31.24 mm | - | 40 W/m² | - |
| 1787644984 | 13.89° C | 94% | 1015.5 hPa | 30.23 mm | - | 37 W/m² | - |
| 1787644672 | 13.89° C | 94% | 1015.4 hPa | 29.46 mm | - | 32 W/m² | - |
| 1787644367 | 13.89° C | 94% | 1015.4 hPa | 28.45 mm | - | 37 W/m² | - |
| 1787644055 | 13.89° C | 94% | 1015.4 hPa | 26.16 mm | - | 37 W/m² | - |
| 1787643771 | 13.89° C | 94% | 1015.3 hPa | 23.88 mm | - | 14 W/m² | - |
| 1787643468 | 13.89° C | 94% | 1015.3 hPa | 22.35 mm | - | 12 W/m² | - |
| 1787643156 | 13.89° C | 94% | 1015.3 hPa | 21.34 mm | - | 12 W/m² | - |
* Rain since midnight (hover to see other rain measurements)
** Current wind speed in m/s (hover to see current wind gust speed)